CST,Max TemperatureF,Mean TemperatureF,Min TemperatureF,Max Dew PointF,MeanDew PointF,Min DewpointF,Max Humidity, Mean Humidity, Min Humidity, Max Sea Level PressureIn, Mean Sea Level PressureIn, Min Sea Level PressureIn, Max VisibilityMiles, Mean VisibilityMiles, Min VisibilityMiles, Max Wind SpeedMPH, Mean Wind SpeedMPH, Max Gust SpeedMPH,PrecipitationIn, CloudCover, Events, WindDirDegrees
2012-11-1,71,52,32,43,37,32,100,71,31,30.02,29.96,29.87,10.0,9.5,4.0,15,2,22,0.00,0,,266
2012-11-2,60,50,41,39,34,32,87,59,34,30.01,29.96,29.88,10.0,10.0,10.0,14,5,20,0.00,0,,84
2012-11-3,55,44,32,34,33,32,100,68,41,30.20,30.11,29.96,10.0,10.0,10.0,14,7,18,0.00,0,,340
2012-11-4,59,44,30,39,35,30,100,72,44,30.24,30.15,30.05,10.0,9.7,3.0,10,2,,0.00,1,,144
2012-11-5,48,44,41,46,42,39,100,93,76,30.12,30.05,29.97,10.0,6.7,1.0,14,4,17,0.00,8,Rain,14
2012-11-6,57,47,37,41,36,30,93,70,38,30.10,30.03,29.96,10.0,8.9,5.0,23,5,29,0.00,4,,284
2012-11-7,53,43,32,36,33,32,100,69,47,30.19,30.12,30.05,10.0,9.7,3.0,12,5,17,0.00,0,,322
2012-11-8,68,50,32,41,37,30,100,66,35,30.13,30.00,29.90,10.0,10.0,10.0,15,4,18,0.00,0,,134
2012-11-9,73,60,48,59,51,41,77,68,53,29.92,29.84,29.76,10.0,10.0,10.0,15,7,21,0.00,0,,153
2012-11-10,73,68,62,57,54,50,77,60,46,29.81,29.75,29.70,10.0,10.0,10.0,22,14,33,0.00,0,Rain,179
2012-11-11,68,49,28,59,38,21,100,82,60,30.22,29.91,29.65,10.0,8.8,0.8,24,11,31,0.00,6,Rain-Thunderstorm,289
2012-11-12,44,35,26,27,22,18,100,68,36,30.43,30.34,30.22,10.0,10.0,10.0,16,5,25,0.00,0,,250
2012-11-13,53,38,23,34,29,21,100,72,38,30.45,30.40,30.33,10.0,10.0,10.0,8,1,,0.00,0,,149
2012-11-14,55,42,30,34,30,23,100,67,29,30.42,30.34,30.28,10.0,9.9,5.0,10,3,16,0.00,0,,158
2012-11-15,55,44,32,37,33,30,100,72,41,30.39,30.31,30.27,10.0,10.0,10.0,7,1,,0.00,1,,198
2012-11-16,57,44,30,39,34,28,100,79,41,30.47,30.41,30.37,10.0,9.5,7.0,6,1,,0.00,0,,128
2012-11-17,60,44,28,36,31,28,100,71,31,30.41,30.34,30.28,10.0,8.8,5.0,13,2,22,0.00,0,,154
2012-11-18,60,46,33,36,33,30,93,57,36,30.29,30.23,30.15,10.0,10.0,10.0,16,4,18,0.00,1,Rain,141
2012-11-19,64,52,39,46,42,34,100,69,47,30.17,30.11,30.05,10.0,9.9,7.0,16,6,23,0.00,2,,177
2012-11-20,62,48,33,45,39,32,100,79,48,30.22,30.18,30.10,10.0,8.9,4.0,8,2,,0.00,0,,299
2012-11-21,71,52,32,45,36,30,100,65,28,30.22,30.13,29.99,10.0,8.2,4.0,15,3,20,0.00,0,,168
2012-11-22,68,57,44,52,43,36,71,55,42,30.23,29.96,29.85,10.0,10.0,10.0,25,10,33,0.00,1,,219
2012-11-23,44,34,23,36,20,12,80,56,36,30.47,30.39,30.24,10.0,10.0,10.0,22,11,37,0.00,1,,305
2012-11-24,44,32,19,27,21,18,93,64,39,30.42,30.18,29.90,10.0,10.0,10.0,13,3,17,0.00,0,,156
2012-11-25,53,40,28,32,29,25,93,65,44,30.07,29.95,29.88,10.0,10.0,10.0,10,3,,0.00,0,,20
2012-11-26,41,32,23,32,26,16,100,76,56,30.47,30.28,30.05,10.0,9.8,1.5,23,7,26,0.00,1,Snow,15
2012-11-27,39,26,14,21,16,12,100,70,39,30.47,30.37,30.27,10.0,10.0,10.0,10,2,,0.00,0,,177
2012-11-28,51,35,19,30,26,18,100,73,44,30.42,30.32,30.19,10.0,10.0,10.0,8,1,,0.00,0,,153
2012-11-29,60,44,28,41,34,27,93,70,48,30.19,30.06,29.97,10.0,10.0,10.0,17,4,22,0.00,0,,171
2012-11-30,59,47,35,39,36,32,93,68,45,30.08,30.04,29.99,10.0,10.0,10.0,9,2,,0.00,0,,236